sat.trackr.live / text

‹ back to catalog

UNKNOWN

NORAD 81667

UNKNOWN UNKNOWN UNKNOWN

§ Identity

Operator
Country
Launch date
Launch site
Launch vehicle
Mass (kg)
RCS (m²)

External: N2YO · Heavens-Above

§ Orbital elements

Epoch: 2026-09-15T08:35:09.541248Z

Period
99.36 min
Inclination
74.0362°
Eccentricity
0.0012358
Mean motion
14.49255350 rev/d
Perigee alt
719.3 km
Apogee alt
736.9 km
Semi-major
7,106.2 km
B*
4.2475e-4
RAAN
238.2818°
Arg perigee
104.9267°
Mean anomaly
255.3262°
Rev number
49,670

§ Raw data

UNKNOWN1 81667U          26258.35774932  .00001594  00000+0  42475-3 0  99942 81667  74.0362 238.2818 0012358 104.9267 255.3262 14.49255350496701

JSON: /api/v1/satellites/81667 · /tle

For live sub-satellite position, see the globe view (requires WebGL).

§ Visibility from observer

Set your observer location to see the next 7 days of passes ≥ 10°. The values pass through the URL so the page stays shareable.

No JS? Fill the form by hand. The geolocation button needs JavaScript.